[[{"header":{"parameterUnit":"m.s-1","parameterCategory":1,"la1":30.2991,"la2":30.254,"lo1":-89.0895,"lo2":-89.0444,"dy":0.0017,"dx":0.0017,"nx":28,"ny":28,"refTime":"2023-03-29T21:00:00:Z","depth":0,"parameterNumber":2,"parameterNumberName":"U-component_of_WINDS"},"data":[0,0,0,0,0,0,0,0,0,0,0,0,0,0,0,0,0,0,0,0,0,0,0,0,0,0,0,0,0,0,0,0,0,0,0,0,0,0,0,0,0,0,0,0,0,0,0,0,0,0,0,0,0,0,0,0,0,0,-5.4496,-5.4497,0,-5.456,-5.456,-5.4561,-5.4497,-5.4494,-5.4492,-5.4489,-5.4554,-5.4558,-5.4562,0,0,0,0,0,0,0,0,0,0,0,0,0,-5.4319,-5.4323,-5.4496,-5.4497,-5.4498,-5.456,-5.456,-5.4561,-5.4497,-5.4494,-5.4491,-5.4488,-5.4552,-5.4557,-5.4562,0,0,0,0,0,0,0,0,0,0,0,0,0,-5.4391,-5.4324,-5.4496,-5.4473,-5.4472,-5.4559,-5.456,-5.4562,-5.4498,-5.4494,-5.449,-5.4487,-5.4551,-5.4557,-5.4563,-5.4676,0,0,-5.4581,-5.4584,0,0,0,0,0,0,0,0,-5.4387,-5.4397,-5.4476,-5.4475,-5.4473,-5.4516,-5.4522,-5.46,-5.4499,-5.4488,-5.4489,-5.4485,-5.4544,-5.4551,-5.4571,-5.4679,-5.4681,-5.4582,-5.4586,-5.4588,-5.459,0,0,0,0,0,0,0,-5.4382,-5.4394,-5.4521,-5.4477,-5.4476,-5.446,-5.4466,-5.4536,-5.4536,-5.4489,-5.4484,-5.4493,-5.4543,-5.4565,-5.4572,-5.4682,-5.4582,-5.4587,-5.4591,-5.4593,-5.4886,-5.489,0,0,0,0,0,0,-5.438,-5.4391,-5.4519,-5.4523,-5.442,-5.4466,-5.4473,-5.4506,-5.4535,-5.4536,-5.4496,-5.4489,-5.4557,-5.4565,-5.4574,-5.4707,-5.4588,-5.4594,-5.4597,-5.4882,-5.4887,-5.4892,0,0,0,0,0,0,-5.4376,-5.4392,-5.4516,-5.4456,-5.447,-5.4473,-5.4511,-5.451,-5.4532,-5.4541,-5.4541,-5.4518,-5.4554,-5.4565,-5.4651,-5.4708,-5.4597,-5.4602,-5.4877,-5.4884,-5.4889,-5.4975,0,0,0,0,0,0,-5.4371,-5.4391,-5.4433,-5.4457,-5.4474,-5.4592,-5.4515,-5.4514,-5.4542,-5.4535,-5.4562,-5.4563,-5.4552,-5.4642,-5.4657,-5.4715,-5.4607,-5.4872,-5.488,-5.4887,-5.4967,-5.4983,-5.4997,0,0,0,0,0,-5.4365,-5.4455,-5.4436,-5.4452,-5.4527,-5.4596,-5.4605,-5.4591,-5.4547,-5.459,-5.4596,-5.4562,-5.4701,-5.4651,-5.4668,-5.4728,-5.4868,-5.4878,-5.4887,-5.496,-5.498,-5.4997,0,0,0,0,0,0,-5.4437,-5.4457,-5.4436,-5.4536,-5.4565,-5.4585,-5.4638,-5.4613,-5.4654,-5.4645,-5.4626,-5.4632,-5.4723,-5.4734,-5.4679,-5.4839,-5.4777,-5.479,-5.4827,-5.4846,-5.4861,-5.4855,-5.4612,0,0,0,0,0,-5.4465,-5.4519,-5.4534,-5.462,-5.4636,-5.4635,-5.4664,-5.4651,-5.468,-5.4691,-5.4704,-5.4733,-5.4783,-5.4816,-5.4862,-5.497,-5.4974,-5.5019,-5.5035,-5.5047,-5.5057,-5.5114,-5.5134,-5.4922,-5.4922,-5.4922,0,0,-5.4521,-5.454,-5.4574,-5.4635,-5.4656,-5.4712,-5.4645,-5.4708,-5.4749,-5.4701,-5.4781,-5.4792,-5.4824,-5.492,-5.4963,-5.4933,-5.5118,-5.5059,-5.5069,-5.5072,-5.5126,-5.5146,-5.5164,-5.4928,-5.4927,-5.4926,0,0,-5.4653,-5.4673,-5.4747,-5.477,-5.4802,-5.4801,-5.4819,-5.4844,-5.4849,-5.4931,-5.4895,-5.4945,-5.5032,-5.5055,-5.5078,-5.5223,-5.5192,-5.5239,-5.5316,-5.5372,-5.5389,-5.5403,-5.5453,-5.5471,-5.525,-5.525,-5.525,0,-5.472,-5.4803,-5.4788,-5.4853,-5.4881,-5.4842,-5.4916,-5.4939,-5.4985,-5.5005,-5.497,-5.5079,-5.5097,-5.5198,-5.5233,-5.5255,-5.5274,-5.5233,-5.5388,-5.5402,-5.5416,-5.5463,-5.5482,-5.5255,-5.5255,-5.5254,-5.5254,0,-5.4882,-5.4941,-5.4997,-5.5042,-5.5077,-5.5146,-5.5143,-5.5179,-5.5165,-5.5168,-5.5251,-5.5273,-5.5323,-5.5347,-5.5332,-5.5446,-5.5426,-5.5391,-5.5327,-5.5441,-5.5485,-5.5503,-5.5263,-5.5261,-5.5259,-5.5258,0,0,-5.5057,-5.5096,-5.5116,-5.5136,-5.5171,-5.5215,-5.5284,-5.5334,-5.5365,-5.5399,-5.5455,-5.5531,-5.5498,-5.5525,-5.5514,-5.5563,-5.5674,-5.5521,-5.5522,-5.5547,-5.58,-5.5824,-5.5845,-5.5656,-5.566,-5.5662,-5.5796,0,-5.5188,-5.5306,-5.5296,-5.5408,-5.5461,-5.5426,-5.5486,-5.5514,-5.5519,-5.5566,-5.5572,-5.5625,-5.558,-5.5595,-5.5643,-5.5651,-5.5724,-5.5641,-5.5706,-5.5709,-5.5696,-5.5868,-5.5894,-5.6019,-5.5813,-5.5816,-5.5818,0,-5.5355,-5.5395,-5.5513,-5.5539,-5.5561,-5.5615,-5.566,-5.5705,-5.5736,-5.5737,-5.5768,-5.5749,-5.5818,-5.5757,-5.5852,-5.5795,-5.5822,-5.5831,-5.5835,-5.5838,-5.5768,-5.5873,-5.6058,-5.6076,-5.5846,-5.5843,-5.5841,0,-5.5468,-5.5552,-5.5633,-5.5652,-5.5685,-5.5724,-5.574,-5.5767,-5.5798,-5.5838,-5.5857,-5.5905,-5.5931,-5.5968,-5.5963,-5.5919,-5.6059,-5.5997,-5.606,-5.606,-5.6088,-5.6085,-5.6278,-5.6111,-5.6111,-5.611,-5.611,0,-5.5613,-5.5685,-5.5684,-5.5733,-5.5813,-5.5803,-5.5883,-5.5894,-5.592,-5.597,-5.5945,-5.5993,-5.5984,-5.6033,-5.603,-5.6108,-5.612,-5.6122,-5.612,-5.6122,-5.6122,-5.6137,-5.6127,-5.6115,-5.6114,-5.6113,-5.6112,0,-5.5751,-5.5753,-5.5838,-5.5864,-5.5872,-5.593,-5.5952,-5.5999,-5.6004,-5.6069,-5.6084,-5.6091,-5.6147,-5.6147,-5.6211,-5.6208,-5.6303,-5.6293,-5.6292,-5.6289,-5.6351,-5.6344,-5.6557,-5.6584,-5.6403,-5.6404,-5.6406,0,-5.5841,-5.5896,-5.5929,-5.5961,-5.598,-5.6032,-5.6064,-5.6057,-5.609,-5.6131,-5.6173,-5.6227,-5.6269,-5.6361,-5.6371,-5.6421,-5.6409,-5.648,-5.6416,-5.6417,-5.6407,-5.6402,-5.6407,-5.6492,-5.6494,-5.6495,-5.6497,0,-5.6002,-5.6,-5.6047,-5.6094,-5.6133,-5.617,-5.6204,-5.6232,-5.6229,-5.6268,-5.6325,-5.6359,-5.6425,-5.6478,-5.6526,-5.6542,-5.6519,-5.6518,-5.6534,-5.6536,-5.6532,-5.6533,-5.6323,-5.6512,-5.651,-5.6509,-5.6508,-5.6508,-5.6117,-5.6164,-5.6194,-5.6247,-5.6272,-5.6305,-5.635,-5.6361,-5.6409,-5.6462,-5.6455,-5.6519,-5.655,-5.6612,-5.6633,-5.6682,-5.6657,-5.6682,-5.6688,-5.6693,-5.6699,-5.6528,-5.6691,-5.6691,-5.6691,-5.669,-5.669,0,-5.6273,-5.6292,-5.6341,-5.6389,-5.6431,-5.6408,-5.6445,-5.6481,-5.6537,-5.6569,-5.6611,-5.6677,-5.673,-5.6746,-5.6797,-5.6833,-5.6824,-5.6847,-5.6842,-5.6846,-5.6719,-5.6699,-5.6853,-5.6853,-5.6853,-5.6853,-5.6853,-5.6853,-5.6359,-5.6437,-5.644,-5.6531,-5.6549,-5.6611,-5.6634,-5.6664,-5.6689,-5.6764,-5.6807,-5.6818,-5.6844,-5.6896,-5.6944,-5.6947,-5.6966,-5.6992,-5.6991,-5.6872,-5.6855,-5.6839,-5.682,-5.6997,-5.6997,-5.7114,-5.7115,-5.7115]},{"header":{"parameterUnit":"m.s-1","parameterCategory":1,"la1":30.2991,"la2":30.254,"lo1":-89.0895,"lo2":-89.0444,"dy":0.0017,"dx":0.0017,"nx":28,"ny":28,"refTime":"2023-03-29T21:00:00:Z","depth":0,"parameterNumber":3,"parameterNumberName":"V-component_of_WINDS"},"data":[0,0,0,0,0,0,0,0,0,0,0,0,0,0,0,0,0,0,0,0,0,0,0,0,0,0,0,0,0,0,0,0,0,0,0,0,0,0,0,0,0,0,0,0,0,0,0,0,0,0,0,0,0,0,0,0,0,0,3.8883,3.8884,0,3.8929,3.893,3.893,3.8917,3.8916,3.8915,3.8914,3.8957,3.8959,3.8961,0,0,0,0,0,0,0,0,0,0,0,0,0,3.8782,3.8784,3.8883,3.8884,3.8885,3.8929,3.893,3.893,3.8917,3.8916,3.8915,3.8914,3.8956,3.8958,3.8961,0,0,0,0,0,0,0,0,0,0,0,0,0,3.8826,3.8784,3.8883,3.8883,3.8884,3.8929,3.893,3.893,3.8917,3.8916,3.8915,3.8913,3.8955,3.8958,3.8961,3.9007,0,0,3.897,3.8972,0,0,0,0,0,0,0,0,3.8824,3.883,3.8883,3.8884,3.8884,3.8916,3.8909,3.8956,3.8918,3.8905,3.8914,3.8913,3.8944,3.8948,3.8959,3.9009,3.9011,3.897,3.8972,3.8974,3.8974,0,0,0,0,0,0,0,3.8821,3.8828,3.8901,3.8884,3.8884,3.888,3.8885,3.8918,3.8931,3.8906,3.8905,3.8911,3.8944,3.8956,3.896,3.9012,3.897,3.8973,3.8975,3.8976,3.9103,3.9105,0,0,0,0,0,0,3.8818,3.8825,3.89,3.8903,3.885,3.8883,3.8889,3.8907,3.8931,3.8933,3.8912,3.891,3.8952,3.8957,3.8962,3.9018,3.8974,3.8976,3.8978,3.9102,3.9104,3.9105,0,0,0,0,0,0,3.8816,3.8824,3.8898,3.8864,3.8873,3.8887,3.8907,3.8909,3.8921,3.8936,3.8938,3.8922,3.8951,3.8957,3.8997,3.9019,3.8978,3.898,3.91,3.9102,3.9104,3.9131,0,0,0,0,0,0,3.8813,3.8824,3.8842,3.8865,3.8875,3.8933,3.8909,3.8911,3.8927,3.8925,3.8946,3.8948,3.8951,3.8992,3.9,3.9023,3.8983,3.9098,3.9101,3.9104,3.9128,3.9134,3.9139,0,0,0,0,0,3.8809,3.8846,3.8843,3.8852,3.8898,3.8935,3.894,3.8944,3.8929,3.8947,3.8957,3.8947,3.9016,3.8996,3.9005,3.9029,3.9096,3.91,3.9103,3.9125,3.9132,3.9138,0,0,0,0,0,0,3.8824,3.8849,3.8846,3.8891,3.8911,3.8932,3.8955,3.8951,3.8974,3.8971,3.8973,3.8977,3.9018,3.9027,3.9005,3.9075,3.9054,3.9059,3.9068,3.9074,3.908,3.9076,3.8985,0,0,0,0,0,3.8833,3.8861,3.8881,3.892,3.893,3.8941,3.8957,3.8958,3.8978,3.8986,3.8998,3.9017,3.9042,3.9059,3.9083,3.913,3.9134,3.915,3.9156,3.916,3.9164,3.919,3.9198,3.9117,3.9117,3.9117,0,0,3.885,3.8868,3.8885,3.8923,3.8939,3.8967,3.8948,3.8979,3.9,3.899,3.9028,3.9038,3.9059,3.9102,3.9122,3.9111,3.9188,3.9165,3.9168,3.917,3.9195,3.9202,3.9209,3.9119,3.9119,3.9119,0,0,3.8898,3.8914,3.8948,3.8965,3.899,3.8997,3.9005,3.9028,3.9035,3.9074,3.9067,3.9092,3.9136,3.9152,3.9165,3.9221,3.9214,3.9229,3.9257,3.9282,3.9288,3.9294,3.9314,3.9321,3.9234,3.9234,3.9234,0,3.8916,3.8961,3.8966,3.8999,3.9015,3.901,3.9045,3.906,3.909,3.9102,3.909,3.9147,3.916,3.9207,3.9222,3.9233,3.9242,3.9226,3.9287,3.9293,3.9298,3.9317,3.9325,3.9235,3.9235,3.9235,3.9235,0,3.8982,3.9013,3.9038,3.907,3.909,3.9123,3.9133,3.9152,3.9152,3.9161,3.9201,3.9218,3.9246,3.9257,3.9257,3.9305,3.9298,3.9287,3.9265,3.9308,3.9325,3.9333,3.9238,3.9237,3.9237,3.9236,0,0,3.9038,3.9075,3.9084,3.9099,3.9127,3.915,3.9183,3.9213,3.923,3.9251,3.9279,3.9318,3.9309,3.9324,3.9325,3.9348,3.9391,3.9334,3.9335,3.9344,3.9446,3.9453,3.9462,3.9387,3.9389,3.939,3.9444,0,3.9088,3.9148,3.9155,3.9208,3.9237,3.9233,3.9262,3.9282,3.9291,3.9316,3.9326,3.9354,3.934,3.9349,3.9371,3.9382,3.9412,3.9378,3.9412,3.9413,3.9406,3.9471,3.9479,3.9529,3.9451,3.9452,3.9453,0,3.9153,3.9179,3.9236,3.9262,3.9274,3.93,3.9328,3.9353,3.9375,3.9381,3.94,3.9399,3.9432,3.941,3.9457,3.9433,3.9448,3.9456,3.9458,3.946,3.9435,3.9475,3.9545,3.9552,3.9464,3.9463,3.9462,0,3.9188,3.9237,3.9278,3.9291,3.9322,3.934,3.9354,3.9375,3.9393,3.9418,3.9429,3.9457,3.9472,3.9493,3.9499,3.9483,3.9545,3.9524,3.955,3.955,3.9562,3.9561,3.9635,3.9573,3.9573,3.9573,3.9572,0,3.9242,3.9277,3.9294,3.9319,3.9358,3.9366,3.9404,3.9416,3.9436,3.9462,3.9461,3.9485,3.9493,3.9519,3.9524,3.9562,3.9568,3.9573,3.9574,3.9573,3.9572,3.9582,3.9578,3.9575,3.9574,3.9574,3.9573,0,3.9287,3.93,3.9345,3.9371,3.9379,3.9406,3.9429,3.9452,3.9462,3.9496,3.9504,3.952,3.955,3.9559,3.9595,3.9599,3.9643,3.9641,3.9636,3.9636,3.9662,3.9659,3.9744,3.9755,3.9686,3.9686,3.9687,0,3.932,3.9348,3.9378,3.9397,3.9412,3.9442,3.9461,3.947,3.949,3.9519,3.9539,3.957,3.9595,3.9644,3.9657,3.9685,3.9683,3.9711,3.9687,3.9686,3.9684,3.9682,3.9684,3.9715,3.9716,3.9717,3.9717,0,3.9379,3.9385,3.9413,3.9444,3.9468,3.9492,3.9516,3.9531,3.9543,3.9566,3.9598,3.9618,3.9656,3.9687,3.9716,3.9728,3.9725,3.9725,3.9732,3.9731,3.9727,3.973,3.9648,3.9722,3.9722,3.9722,3.9721,3.9721,3.9419,3.9443,3.9469,3.9501,3.9521,3.9543,3.9567,3.9582,3.961,3.9643,3.9646,3.9681,3.9704,3.9743,3.9757,3.9784,3.9776,3.9787,3.9789,3.9792,3.9794,3.9724,3.979,3.9789,3.9789,3.9789,3.9789,0,3.9476,3.9494,3.9523,3.9558,3.9583,3.958,3.9607,3.9628,3.9659,3.9682,3.9708,3.9745,3.9775,3.9792,3.9822,3.9841,3.984,3.9848,3.9846,3.9849,3.98,3.979,3.9848,3.9848,3.9848,3.9848,3.9848,3.9848,3.9509,3.9551,3.956,3.9612,3.9628,3.9664,3.968,3.97,3.9719,3.9762,3.9788,3.9799,3.982,3.9851,3.9879,3.9883,3.9894,3.9903,3.9906,3.9859,3.9853,3.9847,3.9838,3.9905,3.9906,3.9954,3.9954,3.9954]}]]